Cheyenne, WY

12:01 PM MDT on July 23, 2016 (GMT -0600)
Cheyenne

Weather History for KCYS - April, 2013

Change the Weather History Date:

Monday, April 22, 2013

  Actual Average Record
Temperature  
Mean Temperature 29 °F 45 °F  
Max Temperature 40 °F 57 °F 80 °F (1989)
Min Temperature 17 °F 32 °F 9 °F (1874)
Degree Days  
Heating Degree Days 36 20  
Month to date heating degree days 698 514  
Since 1 July heating degree days 6561 6434  
Cooling Degree Days 0 0  
Month to date cooling degree days 0 0  
Year to date cooling degree days 0 0  
Moisture  
Dew Point 19 °F    
Average Humidity 81    
Maximum Humidity 92    
Minimum Humidity 70    
Precipitation  
Precipitation 0.15 in 0.07 in 1.91 in (1923)
Month to date precipitation 2.07 1.23  
Year to date precipitation 3.58 3.08  
Snow  
Snow 1.90 in 0.30 in 11.50 in (1923)
Month to date snowfall 29.8 8.3  
Since 1 July snowfall 75.0 56.1  
Snow Depth T in    
Sea Level Pressure  
Sea Level Pressure 30.15 in    
Wind  
Wind Speed 13 mph (NE)    
Max Wind Speed 29 mph    
Max Gust Speed 38 mph    
Visibility 4 miles    
Events Fog , Snow    
T = Trace of Precipitation, MM = Missing Value Source: NWS Daily Summary

Daily Weather History Graph

Daily Weather History Graph

Search for Another Location

Airport or City:

Trip Planner

Search our weather history database for the weather conditions in past years. The results will help you decide how hot, cold, wet, or windy it might be!

Date:

Astronomy

Apr. 22, 2013 Rise Set
Actual Time 6:08 AM MDT 7:47 PM MDT
Civil Twilight 5:39 AM MDT 8:16 PM MDT
Nautical Twilight 5:04 AM MDT 8:51 PM MDT
Astronomical Twilight 4:27 AM MDT 9:29 PM MDT
Moon 4:37 PM MDT (4/22) 4:06 AM MDT (4/22)
Length of Visible Light 14h 36m
Length of Day
13h 38m
Waxing Gibbous, 88% of the Moon is Illuminated
Apr 22
Waxing Gibbous
Apr 25
Full
May 2
Last Quarter
May 9
New
May 17
First Quarter

Hourly Weather History & Observations

Time (MDT) Temp. Windchill Dew Point Humidity Pressure Visibility Wind Dir Wind Speed Gust Speed Precip Events Conditions
12:53 AM 39.0 °F 31.0 °F 33.1 °F 79% 29.90 in 10.0 mi SW 13.8 mph - N/A   Mostly Cloudy
1:53 AM 37.0 °F 31.0 °F 33.1 °F 86% 29.87 in 10.0 mi SW 8.1 mph - N/A   Mostly Cloudy
2:53 AM 36.0 °F 29.6 °F 32.0 °F 86% 29.84 in 10.0 mi SW 8.1 mph - N/A   Clear
3:53 AM 39.0 °F 31.8 °F 30.9 °F 73% 29.84 in 10.0 mi WNW 11.5 mph - N/A   Overcast
4:53 AM 37.9 °F 35.5 °F 30.9 °F 76% 29.84 in 10.0 mi SW 3.5 mph - N/A   Clear
5:53 AM 35.1 °F - 28.9 °F 78% 29.87 in 10.0 mi Calm Calm - N/A   Clear
6:11 AM 33.8 °F 21.6 °F 28.4 °F 81% 29.93 in 0.2 mi North 23.0 mph 29.9 mph N/A   Partly Cloudy
6:20 AM 28.4 °F 15.8 °F 24.8 °F 86% 29.94 in 6.0 mi North 18.4 mph 31.1 mph N/A   Mostly Cloudy
6:53 AM 27.0 °F 12.8 °F 24.1 °F 89% 29.95 in 10.0 mi North 21.9 mph 33.4 mph N/A   Mostly Cloudy
7:53 AM 27.0 °F 13.2 °F 21.9 °F 81% 30.01 in 10.0 mi North 20.7 mph 35.7 mph 0.00 in   Overcast
8:42 AM 24.8 °F 9.3 °F 21.2 °F 86% 30.00 in 1.8 mi North 24.2 mph 33.4 mph 0.00 in Snow Light Snow
8:53 AM 25.0 °F 9.9 °F 21.0 °F 85% 30.06 in 0.5 mi NNE 23.0 mph 33.4 mph 0.00 in Fog , Snow Light Snow
9:01 AM 23.0 °F 8.7 °F 19.4 °F 86% 30.04 in 0.2 mi North 18.4 mph 31.1 mph 0.00 in Fog , Snow Snow
9:13 AM 21.2 °F 5.2 °F 19.4 °F 93% 30.03 in 0.2 mi NNE 21.9 mph 28.8 mph 0.01 in Fog , Snow Snow
9:53 AM 21.9 °F 6.5 °F 19.0 °F 89% 30.15 in 0.5 mi North 20.7 mph 33.4 mph 0.01 in Fog Light Freezing Fog
10:39 AM 21.2 °F 4.9 °F 19.4 °F 93% 30.07 in 3.0 mi NNE 23.0 mph 32.2 mph 0.01 in   Overcast
10:53 AM 23.0 °F 8.3 °F 19.0 °F 85% 30.13 in 5.0 mi North 19.6 mph 28.8 mph 0.01 in   Overcast
11:09 AM 23.0 °F 8.0 °F 19.4 °F 86% 30.07 in 2.5 mi NNE 20.7 mph 31.1 mph N/A   Overcast
11:31 AM 21.2 °F 6.4 °F 17.6 °F 86% 30.09 in 9.0 mi NNE 18.4 mph 32.2 mph N/A   Overcast
11:53 AM 21.9 °F 6.5 °F 18.0 °F 85% 30.17 in 10.0 mi NNE 20.7 mph 33.4 mph N/A   Overcast
12:33 PM 21.2 °F 6.8 °F 17.6 °F 86% 30.09 in 7.0 mi NNE 17.3 mph 27.6 mph N/A   Overcast
12:53 PM 21.0 °F 7.1 °F 18.0 °F 88% 30.18 in 7.0 mi NNE 16.1 mph 26.5 mph N/A   Overcast
1:51 PM 21.2 °F 6.0 °F 17.6 °F 86% 30.11 in 8.0 mi NE 19.6 mph 25.3 mph N/A   Overcast
1:53 PM 21.0 °F 6.2 °F 17.1 °F 85% 30.20 in 8.0 mi NE 18.4 mph 25.3 mph N/A   Overcast
2:17 PM 21.2 °F 6.4 °F 17.6 °F 86% 30.12 in 4.0 mi NNE 18.4 mph 27.6 mph N/A   Haze
2:51 PM 21.2 °F 6.4 °F 17.6 °F 86% 30.12 in 2.5 mi NE 18.4 mph 27.6 mph N/A   Haze
2:53 PM 21.9 °F 6.9 °F 17.1 °F 82% 30.22 in 2.5 mi NE 19.6 mph 27.6 mph N/A   Haze
3:36 PM 23.0 °F 9.2 °F 17.6 °F 80% 30.13 in 2.0 mi NE 17.3 mph 21.9 mph N/A   Haze
3:53 PM 23.0 °F 9.6 °F 17.1 °F 78% 30.20 in 2.0 mi NNE 16.1 mph 23.0 mph N/A   Haze
4:53 PM 21.9 °F 9.8 °F 16.0 °F 78% 30.25 in 2.0 mi NNE 12.7 mph - 0.00 in Snow Light Snow
5:00 PM 21.2 °F 10.1 °F 15.8 °F 80% 30.16 in 1.0 mi NNE 10.4 mph 18.4 mph 0.00 in Snow Light Snow
5:08 PM 21.2 °F 9.5 °F 17.6 °F 86% 30.17 in 0.5 mi NE 11.5 mph - 0.00 in Snow Snow
5:19 PM 21.2 °F 9.5 °F 17.6 °F 86% 30.15 in 0.8 mi NE 11.5 mph - 0.00 in Snow Light Snow
5:44 PM 21.2 °F 8.9 °F 17.6 °F 86% 30.16 in 0.5 mi NE 12.7 mph - 0.01 in Fog , Snow Snow
5:53 PM 21.9 °F 9.8 °F 17.1 °F 82% 30.27 in 0.8 mi NE 12.7 mph - 0.01 in Snow Light Snow
6:21 PM 21.2 °F 8.9 °F 17.6 °F 86% 30.17 in 1.0 mi ENE 12.7 mph 19.6 mph 0.01 in Snow Light Snow
6:31 PM 21.2 °F 10.1 °F 17.6 °F 86% 30.18 in 0.8 mi NE 10.4 mph - 0.01 in Snow Light Snow
6:43 PM 21.2 °F 10.9 °F 17.6 °F 86% 30.18 in 1.2 mi ENE 9.2 mph - 0.01 in Snow Light Snow
6:53 PM 21.0 °F 9.9 °F 16.0 °F 81% 30.32 in 1.8 mi ENE 10.4 mph - 0.01 in Snow Light Snow
7:09 PM 19.4 °F 7.9 °F 17.6 °F 93% 30.18 in 0.8 mi NE 10.4 mph - 0.00 in Snow Light Snow
7:34 PM 19.4 °F 9.5 °F 15.8 °F 86% 30.21 in 1.0 mi ENE 8.1 mph - 0.01 in Snow Light Snow
7:43 PM 19.4 °F 10.4 °F 17.6 °F 93% 30.21 in 0.8 mi ENE 6.9 mph - 0.01 in Snow Light Snow
7:51 PM 19.4 °F 11.5 °F 17.6 °F 93% 30.23 in 1.0 mi ENE 5.8 mph - 0.01 in Snow Light Snow
7:53 PM 19.9 °F 10.1 °F 17.1 °F 89% 30.38 in 1.0 mi ENE 8.1 mph - 0.01 in Snow Light Snow
8:15 PM 19.4 °F 10.4 °F 17.6 °F 93% 30.22 in 1.0 mi ENE 6.9 mph - 0.01 in Snow Light Snow
8:39 PM 19.4 °F 8.6 °F 15.8 °F 86% 30.22 in 1.8 mi ENE 9.2 mph - 0.02 in Snow Light Snow
8:53 PM 19.9 °F 12.1 °F 16.0 °F 85% 30.39 in 3.0 mi ENE 5.8 mph - 0.02 in   Overcast
9:01 PM 19.4 °F 10.4 °F 15.8 °F 86% 30.23 in 5.0 mi ENE 6.9 mph - 0.00 in   Overcast
9:27 PM 19.4 °F 11.5 °F 15.8 °F 86% 30.24 in 5.0 mi ENE 5.8 mph - 0.00 in   Overcast
9:39 PM 19.4 °F 10.4 °F 15.8 °F 86% 30.23 in 5.0 mi ENE 6.9 mph - 0.00 in   Overcast
9:53 PM 19.0 °F 10.0 °F 15.1 °F 85% 30.43 in 4.0 mi ENE 6.9 mph - 0.00 in Snow Light Snow
10:13 PM 19.4 °F 10.4 °F 15.8 °F 86% 30.24 in 2.5 mi ENE 6.9 mph - 0.00 in Snow Light Snow
10:33 PM 17.6 °F 7.3 °F 15.8 °F 93% 30.24 in 2.0 mi East 8.1 mph - 0.00 in Snow Light Snow
10:50 PM 17.6 °F 8.2 °F 15.8 °F 93% 30.23 in 3.0 mi ENE 6.9 mph - 0.00 in Snow Light Snow
10:53 PM 18.0 °F 9.8 °F 15.1 °F 88% 30.41 in 3.0 mi ENE 5.8 mph - 0.00 in Snow Light Snow
11:11 PM 17.6 °F 9.3 °F 15.8 °F 93% 30.22 in 4.0 mi NE 5.8 mph - 0.01 in Snow Light Snow
11:20 PM 17.6 °F 10.7 °F 14.0 °F 86% 30.22 in 7.0 mi ENE 4.6 mph - 0.01 in   Overcast
11:50 PM 17.6 °F 10.7 °F 14.0 °F 86% 30.21 in 10.0 mi ENE 4.6 mph - 0.01 in   Overcast
11:53 PM 17.1 °F 7.6 °F 14.0 °F 88% 30.41 in 10.0 mi ENE 6.9 mph - 0.01 in   Overcast